Flag for Aruba Weather past 2 weeks in Oranjestad, Aruba

Now
81 °F

Passing clouds.


Feels Like: 85 °F
Forecast: 80 / 89 °F
Wind: 22 mph from East

Location: Queen Beatrix Airport - Aruba


UV Index: 10 (Very high)

Visibility: N/A


Pressure: 29.92 "Hg

Humidity: 79%

Dew point: 73 °F

Location of OranjestadLocation

Historic Weather in Oranjestad

°F

Oranjestad temperature yesterday

Maximum temperature yesterday: 90 °F (at 1:00 PM)
Minimum temperature yesterday: 79 °F (at 4:00 AM)
Average temperature yesterday: 83 °F

Past Weeks' High & Low Weather Summary

 TemperatureHumidityPressure
High90 °F (Apr 6, 1:00 PM)94% (Apr 17, 5:00 AM)30.01 "Hg (Apr 17, 5:00 AM)
Low77 °F (Apr 15, 6:00 AM)59% (Apr 11, 12:00 PM)29.77 "Hg (Apr 14, 6:00 PM)
Average83 °F75%29.88 "Hg
* Reported Apr 4 11:00 PM — Apr 19 11:00 PM, Oranjestad, Weather by CustomWeather, © 2014

Note: Actual official high and low records may vary slightly from our data, if they occured in-between our weather recording intervals... More about our weather records

Advertising

Historic Weather Conditions — Data for Previous 24 hours

 ConditionsComfort  
Time TempWeatherWind HumidityBarometerVisibility
11:00 PM
Apr 19
81 °FPassing clouds.21 mph79%29.92 "HgN/A
10:00 PM81 °FPassing clouds.20 mph84%29.92 "HgN/A
9:00 PM81 °FPassing clouds.20 mph79%29.89 "HgN/A
8:00 PM81 °FPassing clouds.21 mph79%29.86 "HgN/A
7:00 PM81 °FPassing clouds.21 mph79%29.83 "HgN/A
6:00 PM82 °FPassing clouds.23 mph79%29.83 "HgN/A
5:00 PM84 °FPassing clouds.25 mph74%29.83 "HgN/A
4:00 PM86 °FScattered clouds.24 mph70%29.83 "HgN/A
3:00 PM88 °FPassing clouds.26 mph66%29.83 "HgN/A
2:00 PM90 °FPassing clouds.24 mph63%29.86 "HgN/A
1:00 PM90 °FPassing clouds.23 mph63%29.89 "HgN/A
12:00 PM88 °FPassing clouds.26 mph62%29.92 "HgN/A
11:00 AM88 °FPassing clouds.24 mph62%29.92 "HgN/A
10:00 AM86 °FPassing clouds.26 mph66%29.92 "HgN/A
9:00 AM84 °FScattered clouds.22 mph74%29.92 "HgN/A
8:00 AM82 °FPassing clouds.23 mph74%29.92 "HgN/A
7:00 AM81 °FPassing clouds.17 mph84%29.89 "HgN/A
6:00 AM79 °FPassing clouds.21 mph84%29.86 "HgN/A
5:00 AM79 °FPassing clouds.17 mph84%29.86 "HgN/A
4:00 AM79 °FPassing clouds.18 mph84%29.86 "HgN/A
3:00 AM81 °FPassing clouds.17 mph79%29.86 "HgN/A
2:00 AM81 °FPassing clouds.21 mph79%29.86 "HgN/A
1:00 AM81 °FPassing clouds.21 mph79%29.89 "HgN/A
12:00 AM81 °FPassing clouds.23 mph79%29.89 "HgN/A
Weather by CustomWeather, © 2014

See weather overview